This demonstration page uses our WeatherBlox Daily Observations layout. Learn more.

Left ArrowRight Arrow

41.86663, -103.66717

Hourly Observations for September 1, 2021

Temp ( °F °C ) Dew Point ( °F °C ) Humidity (%) Winds ( mph kmh ) Pressure ( in mb ) Visibility ( mi km ) Precip ( " mm )
12:53 am 00:53 Mostly Clear 68 20 64 17.8 87 87 ESE 8 13 29.72 1007 8 13 0.00 0.00
1:22 am 01:22 Mostly Cloudy 67 19.4 64 17.8 91 91 E 6 9 29.69 1005 7 11 0.00 0.00
1:53 am 01:53 Mostly Cloudy 68 20 64 17.8 87 87 E 7 11 29.70 1006 7 11 0.00 0.00
2:53 am 02:53 Mostly Cloudy 68 20 64 17.8 87 87 E 8 13 29.70 1006 7 11 0.00 0.00
3:53 am 03:53 Mostly Cloudy 68 20 64 17.8 87 87 E 10 17 29.67 1005 9 14 0.00 0.00
4:53 am 04:53 Cloudy 68 20 64 17.8 87 87 ESE 14 22 29.67 1005 8 13 0.00 0.00
5:53 am 05:53 Cloudy 67 19.4 63 17.2 87 87 ESE 12 19 29.67 1005 9 14 0.00 0.00
6:17 am 06:17 Cloudy 67 19.4 62 16.7 84 84 ESE 10 17 29.64 1004 10 16 0.00 0.00
6:53 am 06:53 Cloudy 68 20 62 16.7 81 81 SE 9 15 29.69 1006 10 16 0.00 0.00
7:53 am 07:53 Mostly Cloudy 69 20.6 62 16.7 78 78 SE 5 7 29.72 1007 10 16 0.00 0.00
8:32 am 08:32 Partly Cloudy 69 20.6 61 16.1 76 76 SE 12 19 29.65 1004 10 16 0.00 0.00
8:53 am 08:53 Sunny 71 21.7 62 16.7 73 73 SE 9 15 29.72 1006 10 16 0.00 0.00
9:53 am 09:53 Sunny 73 22.8 60 15.6 64 64 undefined N/A 29.73 1007 10 16 0.00 0.00
10:53 am 10:53 Sunny 77 25 60 15.6 56 56 SSE 7 11 29.72 1007 10 16 0.00 0.00
11:53 am 11:53 Sunny 81 27.2 58 14.4 45 45 VRB 6 9 29.71 1006 10 16 0.00 0.00
12:53 pm 12:53 Sunny 84 28.9 58 14.4 41 41 S 5 7 29.70 1006 10 16 0.00 0.00
1:53 pm 13:53 Sunny 88 31.1 55 12.8 33 33 VRB 6 9 29.69 1005 10 16 0.00 0.00
2:53 pm 14:53 Sunny 89 31.7 58 14.4 35 35 E 8 13 29.67 1005 10 16 0.00 0.00
3:53 pm 15:53 Sunny 87 30.6 57 13.9 36 36 ESE 3 6 29.66 1004 10 16 0.00 0.00
4:53 pm 16:53 Sunny 87 30.6 52 11.1 30 30 NNE 7 11 29.64 1004 10 16 0.00 0.00
5:53 pm 17:53 Mostly Sunny 85 29.4 53 11.7 33 33 ENE 13 20 29.66 1004 10 16 0.00 0.00
6:53 pm 18:53 Mostly Cloudy with Thunderstorms 80 26.7 57 13.9 45 45 ENE 13 20 29.66 1005 10 16 0.00 0.00
7:08 pm 19:08 Cloudy with Nearby Thunderstorms 73 22.8 60 15.6 64 64 SE 12 19 29.61 1003 6 10 0.00 0.00
7:32 pm 19:32 Partly Cloudy with Nearby Thunderstorms 71 21.7 58 14.4 63 63 NE 14 22 29.63 1003 10 16 0.00 0.00
7:53 pm 19:53 Clear 69 20.6 60 15.6 73 73 ENE 14 22 29.74 1007 10 16 0.00 0.00
8:53 pm 20:53 Mostly Clear 68 20 59 15 73 73 NNE 10 17 29.74 1007 10 16 0.00 0.00
9:53 pm 21:53 Mostly Clear 68 20 57 13.9 68 68 NNE 14 22 29.75 1007 10 16 0.00 0.00
10:53 pm 22:53 Cloudy with Light Rain 67 19.4 59 15 76 76 NNW 5 7 29.74 1007 10 16 0.00 0.00
11:53 pm 23:53 Partly Cloudy 67 19.4 60 15.6 79 79 N 3 6 29.72 1007 10 16 0.00 0.00

Powered by AerisWeather